Regional Weather Roundup
Issued by NWS

Home | Current Version | Previous Version | Text Only | Print | Product List | Glossary Off
Versions: 1 2 3 4 5 6 7 8 9 10 11 12 13 14 15 16 17 18 19 20 21 22 23 24 25 26 27 28 29 30 31 32 33 34 35 36 37 38 39 40 41 42 43 44 45 46 47 48 49 50

000
ASUS43 KFSD 250010
RWRSD

WEATHER ROUNDUP FOR SOUTH DAKOTA
NATIONAL WEATHER SERVICE SIOUX FALLS SD
700 PM CDT SUN MAY 24 2015

NOTE: "FAIR" INDICATES FEW OR NO CLOUDS BELOW 12,000 FEET WITH NO
SIGNIFICANT WEATHER AND/OR OBSTRUCTIONS TO VISIBILITY.


SDZ001>005-009-010-012>017-250100-
NORTHWEST AND NORTH CENTRAL SOUTH DAKOTA

CITY           SKY/WX    TMP DP  RH WIND       PRES   REMARKS
BUFFALO          N/A     57  54  89 N6        29.86F
FAITH            N/A     56  53  90 W3        29.91R
MOBRIDGE       RAIN      59  59 100 NE12      29.86F VSB 1
$$

SDZ012>016-024>037-041>051-057-063-072>074-250100-
SOUTHWEST AND SOUTH CENTRAL SOUTH DAKOTA

CITY           SKY/WX    TMP DP  RH WIND       PRES   REMARKS
RAPID CTY ARPT CLOUDY    56  54  93 NE12      29.86S
PIERRE         CLOUDY    59  57  93 E14       29.83F FOG
CUSTER         LGT RAIN  51  47  86 E12       29.89F
ELLSWORTH AFB  CLOUDY    55  55 100 NE7       29.86
PHILIP         CLOUDY    60  58  92 E12       29.83F
PINE RIDGE     CLOUDY    61  53  75 NE15G22   29.80S
SPEARFISH      FOG       50  50 100 NE13      29.91S VSB 1/2
WINNER         CLOUDY    62  58  86 E9        29.81F
$$

SDZ004>011-016>023-039-040-250100-
NORTHEAST SOUTH DAKOTA

CITY           SKY/WX    TMP DP  RH WIND       PRES   REMARKS
ABERDEEN       CLOUDY    63  55  75 E12       29.86F
WATERTOWN      RAIN      58  56  93 E10       29.85F FOG
BROOKINGS      CLOUDY    59  57  94 NE7       29.83F
SISSETON         N/A     59  59 100 E9        29.87F
$$

SDZ017-020-022-023-036>040-048>070-250100-
SOUTHEAST SOUTH DAKOTA

CITY           SKY/WX    TMP DP  RH WIND       PRES   REMARKS
SIOUX FALLS    LGT RAIN  61  59  93 NE8       29.79F
HURON          CLOUDY    61  59  93 E7        29.82F
CHAMBERLAIN    CLOUDY    60  59  98 NE6       29.82F FOG
MITCHELL       CLOUDY    63  60  90 NE9       29.81F
YANKTON        CLOUDY    61  59  94 NW3       29.78F
$$

ABBREVIATIONS USED IN REMARKS
   TC - TEMPERATURE IN CELSIUS
  WCI - WIND CHILL INDEX
   HX - HEAT INDEX
  VSB - VISIBILITY



USA.gov is the U.S. government's official web portal to all federal, state and local government web resources and services.